TimeCDT,TemperatureF,Dew PointF,Humidity,Sea Level PressureIn,VisibilityMPH,Wind Direction,Wind SpeedMPH,Gust SpeedMPH,PrecipitationIn,Events,Conditions,WindDirDegrees,DateUTC
12:15 AM,35.6,30.2,81,30.06,10.0,Calm,Calm,-,N/A,,Scattered Clouds,0,2011-10-17 05:15:00
12:35 AM,35.6,30.2,81,30.06,10.0,Calm,Calm,-,N/A,,Scattered Clouds,0,2011-10-17 05:35:00
12:55 AM,35.6,30.2,81,30.06,10.0,Calm,Calm,-,N/A,,Scattered Clouds,0,2011-10-17 05:55:00
1:15 AM,35.6,30.2,81,30.05,10.0,Calm,Calm,-,N/A,,Scattered Clouds,0,2011-10-17 06:15:00
1:35 AM,33.8,28.4,81,30.04,10.0,Calm,Calm,-,N/A,,Scattered Clouds,0,2011-10-17 06:35:00
2:15 AM,33.8,28.4,81,30.04,10.0,NE,3.5,-,N/A,,Scattered Clouds,40,2011-10-17 07:15:00
2:35 AM,33.8,28.4,81,30.04,10.0,Calm,Calm,-,N/A,,Scattered Clouds,0,2011-10-17 07:35:00
3:15 AM,35.6,30.2,81,30.04,10.0,Calm,Calm,-,N/A,,Scattered Clouds,0,2011-10-17 08:15:00
3:35 AM,35.6,30.2,81,30.03,10.0,Calm,Calm,-,N/A,,Scattered Clouds,0,2011-10-17 08:35:00
3:55 AM,35.6,30.2,81,30.03,10.0,Calm,Calm,-,N/A,,Scattered Clouds,0,2011-10-17 08:55:00
4:15 AM,35.6,30.2,81,30.02,10.0,Calm,Calm,-,N/A,,Clear,0,2011-10-17 09:15:00
4:35 AM,37.4,32.0,81,30.02,10.0,Calm,Calm,-,N/A,,Scattered Clouds,0,2011-10-17 09:35:00
5:15 AM,39.2,33.8,81,30.02,10.0,Calm,Calm,-,N/A,,Clear,0,2011-10-17 10:15:00
5:35 AM,39.2,33.8,81,30.02,10.0,Calm,Calm,-,N/A,,Clear,0,2011-10-17 10:35:00
5:55 AM,39.2,33.8,81,30.03,10.0,Calm,Calm,-,N/A,,Scattered Clouds,0,2011-10-17 10:55:00
6:15 AM,39.2,35.6,87,30.03,10.0,Calm,Calm,-,N/A,,Scattered Clouds,0,2011-10-17 11:15:00
6:35 AM,41.0,35.6,81,30.02,10.0,Calm,Calm,-,N/A,,Mostly Cloudy,0,2011-10-17 11:35:00
6:55 AM,41.0,35.6,81,30.02,10.0,Calm,Calm,-,N/A,,Mostly Cloudy,0,2011-10-17 11:55:00
7:15 AM,42.8,35.6,76,30.02,10.0,Calm,Calm,-,N/A,,Mostly Cloudy,0,2011-10-17 12:15:00
7:35 AM,42.8,35.6,76,30.02,10.0,Calm,Calm,-,N/A,,Scattered Clouds,0,2011-10-17 12:35:00
7:55 AM,41.0,35.6,81,30.03,10.0,Calm,Calm,-,N/A,,Clear,0,2011-10-17 12:55:00
8:15 AM,41.0,35.6,81,30.03,10.0,Calm,Calm,-,N/A,,Clear,0,2011-10-17 13:15:00
8:35 AM,42.8,35.6,76,30.04,10.0,Calm,Calm,-,N/A,,Clear,0,2011-10-17 13:35:00
9:15 AM,44.6,37.4,76,30.06,10.0,Calm,Calm,-,N/A,,Scattered Clouds,0,2011-10-17 14:15:00
9:35 AM,44.6,37.4,76,30.06,10.0,Calm,Calm,-,N/A,,Scattered Clouds,0,2011-10-17 14:35:00
9:55 AM,46.4,37.4,71,30.06,10.0,Calm,Calm,-,N/A,,Mostly Cloudy,0,2011-10-17 14:55:00
10:15 AM,46.4,35.6,66,30.07,10.0,NNE,4.6,-,N/A,,Scattered Clouds,20,2011-10-17 15:15:00
10:35 AM,48.2,35.6,62,30.07,10.0,NNE,5.8,-,N/A,,Light Drizzle,30,2011-10-17 15:35:00
10:55 AM,46.4,37.4,71,30.07,10.0,Calm,Calm,-,N/A,Rain,Light Rain,0,2011-10-17 15:55:00
11:15 AM,46.4,37.4,71,30.06,10.0,NE,4.6,-,N/A,Rain,Light Rain,50,2011-10-17 16:15:00
11:35 AM,46.4,37.4,71,30.06,10.0,ENE,3.5,-,0.01,Rain,Light Rain,70,2011-10-17 16:35:00
11:55 AM,46.4,39.2,76,30.05,10.0,East,4.6,-,0.02,Rain,Light Rain,90,2011-10-17 16:55:00
12:15 PM,46.4,39.2,76,30.05,10.0,NE,4.6,-,N/A,,Light Drizzle,50,2011-10-17 17:15:00
12:35 PM,46.4,39.2,76,30.05,10.0,NE,4.6,-,N/A,Rain,Light Rain,40,2011-10-17 17:35:00
12:55 PM,46.4,39.2,76,30.05,10.0,NNE,4.6,-,0.01,Rain,Light Rain,30,2011-10-17 17:55:00
1:15 PM,44.6,39.2,81,30.04,10.0,NNE,5.8,-,0.02,Rain,Rain,20,2011-10-17 18:15:00
1:55 PM,44.6,39.2,81,30.04,10.0,North,6.9,-,0.06,Rain,Rain,10,2011-10-17 18:55:00
2:15 PM,44.6,39.2,81,30.03,10.0,NNE,4.6,-,0.02,Rain,Rain,20,2011-10-17 19:15:00
2:35 PM,44.6,39.2,81,30.02,10.0,North,3.5,-,0.04,Rain,Rain,10,2011-10-17 19:35:00
2:55 PM,44.6,39.2,81,30.01,10.0,North,4.6,-,0.05,Rain,Light Rain,360,2011-10-17 19:55:00
3:15 PM,46.4,39.2,76,30.00,10.0,North,6.9,-,N/A,Rain,Light Rain,350,2011-10-17 20:15:00
3:35 PM,46.4,39.2,76,30.00,10.0,NNW,6.9,-,0.01,Rain,Light Rain,340,2011-10-17 20:35:00
3:55 PM,46.4,39.2,76,30.01,10.0,NW,4.6,-,0.01,,Clear,320,2011-10-17 20:55:00
4:15 PM,46.4,41.0,81,30.01,10.0,NW,3.5,-,N/A,,Clear,320,2011-10-17 21:15:00
4:35 PM,48.2,41.0,76,30.01,10.0,NW,5.8,-,N/A,,Clear,320,2011-10-17 21:35:00
4:55 PM,48.2,42.8,82,30.02,10.0,NW,3.5,-,N/A,,Clear,310,2011-10-17 21:55:00
5:15 PM,48.2,42.8,82,30.02,10.0,WNW,5.8,-,N/A,,Clear,300,2011-10-17 22:15:00
5:35 PM,48.2,42.8,82,30.02,10.0,NW,3.5,-,N/A,,Scattered Clouds,310,2011-10-17 22:35:00
5:55 PM,48.2,41.0,76,30.02,10.0,WNW,4.6,-,N/A,,Scattered Clouds,290,2011-10-17 22:55:00
6:15 PM,48.2,41.0,76,30.02,10.0,West,4.6,-,N/A,,Scattered Clouds,260,2011-10-17 23:15:00
6:35 PM,48.2,41.0,76,30.03,10.0,WSW,3.5,-,N/A,,Overcast,250,2011-10-17 23:35:00
7:15 PM,46.4,41.0,81,30.03,10.0,WSW,4.6,-,N/A,,Overcast,250,2011-10-18 00:15:00
7:35 PM,46.4,41.0,81,30.04,10.0,WSW,4.6,-,N/A,,Overcast,250,2011-10-18 00:35:00
7:55 PM,46.4,41.0,81,30.04,10.0,West,5.8,-,N/A,,Overcast,260,2011-10-18 00:55:00
8:15 PM,46.4,41.0,81,30.04,10.0,West,5.8,-,N/A,,Overcast,270,2011-10-18 01:15:00
8:35 PM,46.4,41.0,81,30.04,10.0,West,6.9,-,N/A,,Overcast,280,2011-10-18 01:35:00
8:55 PM,48.2,41.0,76,30.04,10.0,West,6.9,-,N/A,,Overcast,280,2011-10-18 01:55:00
9:15 PM,48.2,41.0,76,30.03,10.0,West,8.1,-,N/A,,Mostly Cloudy,280,2011-10-18 02:15:00
9:35 PM,48.2,41.0,76,30.03,10.0,WNW,5.8,-,N/A,,Mostly Cloudy,300,2011-10-18 02:35:00
9:55 PM,48.2,41.0,76,30.03,10.0,WNW,8.1,-,N/A,,Mostly Cloudy,300,2011-10-18 02:55:00
10:15 PM,48.2,39.2,71,30.03,10.0,NW,5.8,-,N/A,,Overcast,320,2011-10-18 03:15:00
10:35 PM,48.2,39.2,71,30.03,10.0,NW,6.9,-,N/A,,Overcast,310,2011-10-18 03:35:00
10:55 PM,48.2,39.2,71,30.03,10.0,NW,8.1,-,N/A,,Overcast,310,2011-10-18 03:55:00
11:15 PM,48.2,39.2,71,30.03,10.0,NW,8.1,-,N/A,,Mostly Cloudy,310,2011-10-18 04:15:00
11:35 PM,48.2,39.2,71,30.03,10.0,WNW,4.6,-,N/A,,Mostly Cloudy,300,2011-10-18 04:35:00
11:55 PM,46.4,39.2,76,30.02,10.0,WNW,5.8,-,N/A,,Mostly Cloudy,300,2011-10-18 04:55:00